Torna al catalogo

STARLINK-11455

AttivoComunicazioniVLEO
NORAD 62463·PAYLOAD·🇺🇸 United States

Lanciato Dec 31, 2024 da Cape Canaveral Space Force Station

Loading…

Prossimi Passaggi (prossime 24 ore)

TLE

AggiornatoSource: CelesTrak SupGP

Epoca: Sep 14, 2026, 22:27 UTC

1 62463C 24254B   26257.93590278 -.00053609  00000+0 -41638-3 0  2579
2 62463  43.0002 162.7321 0001479 267.7478 306.8578 15.70865332    14

Traccia STARLINK-11455 in tempo reale con AllMySat

Download on the App Store